Tracking 33750 objects as of 15-Apr-2026
HD Live streaming from Space Station
objects crossing your sky now

PALAPA B1

Track PALAPA B1 now!
PALAPA B1 is classified as:


NORAD ID: 14134
Int'l Code: 1983-059C
Perigee: 35,810.3 km
Apogee: 35,831.1 km
Inclination: 11.7 °
Period: 1,437.5 minutes
Semi major axis: 42191 km
RCS: 1.2604 m2 (large)
Launch date: June 18, 1983
Source: Indonesia (INDO)
Launch site: AIR FORCE EASTERN TEST RANGE (AFETR)
Your satellite tracking list
Your tracking list is empty




NASA's NSSDC Master Catalog

Two Line Element Set (TLE):
1 14134U 83059C   26104.80541103  .00000113  00000-0  00000-0 0  9998
2 14134  11.6678 329.9269 0002464  72.3575 115.2519  1.00175766120155
Source of the keplerian elements: AFSPC